Datum;Unf�lle mit Alkoholeinfluss;Unfaelle Fahrrad;Unfall Motorrad/-roller;Unfall Pkw;Verungl�ckte Kinder;Verungl�ckte Fu�g�nger;Get�tete insgesamt
01.01.2022;197;73;12;204;16;35;3
02.01.2022;50;51;14;210;18;21;4
03.01.2022;53;120;1;416;35;80;5
04.01.2022;42;106;2;427;29;82;5
05.01.2022;47;135;4;442;35;79;3
06.01.2022;66;242;14;581;35;83;6
07.01.2022;56;97;3;459;48;84;5
08.01.2022;118;109;5;434;36;59;4
09.01.2022;104;34;5;248;28;35;1
10.01.2022;66;216;4;571;51;89;6
11.01.2022;55;162;4;550;40;90;6
12.01.2022;46;127;8;511;40;101;5
13.01.2022;57;173;8;582;52;86;6
14.01.2022;95;192;9;633;70;106;5
15.01.2022;138;91;5;360;39;51;2
16.01.2022;96;59;3;227;36;15;4
17.01.2022;45;163;5;549;53;112;5
18.01.2022;48;179;5;517;52;82;7
19.01.2022;46;166;3;518;47;105;3
20.01.2022;59;172;8;729;66;79;3
21.01.2022;87;159;5;618;60;114;1
22.01.2022;141;86;5;343;26;42;8
23.01.2022;106;50;2;206;16;22;4
24.01.2022;54;161;13;483;44;90;5
25.01.2022;56;158;4;456;47;77;9
26.01.2022;51;146;8;461;42;65;4
27.01.2022;68;144;6;530;35;96;7
28.01.2022;79;160;14;577;72;85;8
29.01.2022;152;86;9;358;29;51;8
30.01.2022;122;52;14;208;21;25;3
31.01.2022;67;151;4;637;54;110;5
01.02.2022;55;126;5;545;30;100;3
02.02.2022;62;170;10;500;48;77;3
03.02.2022;77;177;8;532;45;79;4
04.02.2022;76;150;4;535;49;90;6
05.02.2022;160;109;17;411;48;59;5
06.02.2022;122;30;1;230;13;29;3
07.02.2022;56;142;12;609;61;90;2
08.02.2022;48;144;7;482;48;80;7
09.02.2022;65;197;13;499;45;66;11
10.02.2022;72;152;5;523;48;89;7
11.02.2022;95;168;15;591;54;90;6
12.02.2022;177;129;14;424;47;54;6
13.02.2022;112;109;37;276;36;27;3
14.02.2022;57;169;9;508;44;60;3
15.02.2022;45;175;13;503;47;65;4
16.02.2022;58;159;1;542;44;94;5
17.02.2022;72;93;9;470;30;68;5
18.02.2022;85;132;6;527;39;78;8
19.02.2022;146;85;14;381;55;59;8
20.02.2022;110;38;4;222;23;21;3
21.02.2022;35;125;8;561;64;94;5
22.02.2022;56;139;11;497;47;71;5
23.02.2022;61;251;27;668;68;109;4
24.02.2022;69;152;13;497;42;93;9
25.02.2022;108;159;12;540;55;60;10
26.02.2022;184;143;25;445;58;64;2
27.02.2022;144;105;38;327;38;45;6
28.02.2022;69;201;26;575;61;82;12
01.03.2022;57;181;36;475;57;85;4
02.03.2022;61;180;29;494;75;87;6
03.03.2022;45;217;28;604;65;102;5
04.03.2022;95;208;34;593;55;68;4
05.03.2022;146;127;39;416;31;65;12
06.03.2022;123;55;20;215;22;34;4
07.03.2022;45;193;16;552;67;76;7
08.03.2022;63;216;35;603;65;85;8
09.03.2022;65;254;29;607;64;96;8
10.03.2022;71;257;42;606;72;90;9
11.03.2022;95;234;49;625;79;75;9
12.03.2022;144;175;59;392;42;52;4
13.03.2022;147;170;73;328;37;36;9
14.03.2022;67;202;26;531;74;65;5
15.03.2022;63;189;11;517;46;72;5
16.03.2022;56;237;26;571;73;82;3
17.03.2022;55;186;22;437;48;65;7
18.03.2022;101;270;62;637;94;83;11
19.03.2022;172;170;56;427;47;51;3
20.03.2022;138;163;68;318;50;38;7
21.03.2022;54;259;32;571;78;73;2
22.03.2022;57;334;53;695;96;84;5
23.03.2022;74;326;70;645;86;61;10
24.03.2022;62;339;72;643;95;81;5
25.03.2022;109;350;69;697;84;78;10
26.03.2022;177;265;96;505;56;65;10
27.03.2022;185;238;97;382;60;42;9
28.03.2022;55;332;45;660;83;84;5
29.03.2022;56;243;37;491;67;75;5
30.03.2022;59;218;32;607;95;67;6
31.03.2022;72;209;11;571;59;88;5
01.04.2022;96;152;12;721;86;97;6
02.04.2022;167;76;7;454;47;48;6
03.04.2022;132;62;10;240;24;35;5
04.04.2022;58;179;14;583;40;66;4
05.04.2022;51;179;6;583;62;70;5
06.04.2022;51;191;22;497;47;73;11
07.04.2022;70;159;15;585;56;79;5
08.04.2022;87;137;16;520;68;80;3
09.04.2022;155;106;14;409;46;44;5
10.04.2022;153;87;16;250;35;33;8
11.04.2022;75;239;57;630;67;66;9
12.04.2022;81;288;81;611;73;63;9
13.04.2022;61;294;87;589;69;72;12
14.04.2022;88;284;56;680;85;85;9
15.04.2022;133;145;72;276;45;22;6
16.04.2022;154;218;102;482;63;58;9
17.04.2022;150;172;67;309;45;26;7
18.04.2022;104;228;128;381;57;35;10
19.04.2022;60;290;64;649;84;73;6
20.04.2022;57;277;67;589;60;66;7
21.04.2022;81;269;51;526;77;60;8
22.04.2022;96;276;63;561;83;68;6
23.04.2022;156;197;89;463;65;59;12
24.04.2022;138;129;33;293;30;22;4
25.04.2022;70;229;21;629;76;71;7
26.04.2022;61;288;38;652;60;62;1
27.04.2022;68;355;48;694;96;77;6
28.04.2022;81;407;84;823;110;86;4
29.04.2022;128;384;69;711;94;88;13
30.04.2022;190;207;40;495;63;73;14
01.05.2022;219;214;73;339;48;40;8
02.05.2022;68;378;57;705;91;78;4
03.05.2022;75;387;69;763;117;77;6
04.05.2022;69;394;53;671;97;80;6
05.05.2022;68;387;60;692;80;84;11
06.05.2022;111;404;78;843;127;96;8
07.05.2022;191;279;83;539;76;73;9
08.05.2022;203;288;123;469;67;53;13
09.05.2022;70;478;70;866;126;102;2
10.05.2022;77;468;68;792;107;79;12
11.05.2022;93;568;92;896;112;86;9
12.05.2022;77;504;89;865;134;98;12
13.05.2022;103;425;93;776;146;93;4
14.05.2022;223;425;114;611;93;66;15
15.05.2022;202;443;175;554;88;50;12
16.05.2022;64;434;48;743;97;75;9
17.05.2022;51;454;66;714;121;104;8
18.05.2022;80;596;95;856;108;102;8
19.05.2022;77;480;66;829;113;113;11
20.05.2022;106;442;60;846;116;91;10
21.05.2022;202;339;82;526;95;57;7
22.05.2022;201;345;126;445;55;46;7
23.05.2022;82;369;48;718;141;80;6
24.05.2022;64;365;33;715;102;76;5
25.05.2022;97;429;86;842;126;106;5
26.05.2022;319;454;115;387;63;47;12
27.05.2022;116;304;76;572;89;85;7
28.05.2022;134;227;69;432;74;45;8
29.05.2022;122;146;50;328;50;25;9
30.05.2022;61;347;50;674;116;87;11
31.05.2022;68;392;51;735;99;84;11
01.06.2022;76;431;64;757;95;102;14
02.06.2022;85;444;85;723;123;100;9
03.06.2022;109;519;118;858;154;108;11
04.06.2022;208;387;94;575;88;60;14
05.06.2022;195;233;70;393;50;32;10
06.06.2022;137;300;84;382;59;39;13
07.06.2022;66;306;38;680;92;75;9
08.06.2022;67;378;42;685;105;84;9
09.06.2022;70;322;44;636;115;78;16
10.06.2022;114;433;94;720;106;79;8
11.06.2022;177;392;114;517;81;72;9
12.06.2022;194;406;139;453;68;39;5
13.06.2022;76;344;47;708;108;85;9
14.06.2022;86;462;82;733;135;83;10
15.06.2022;93;540;119;889;134;94;5
16.06.2022;152;459;147;571;80;71;13
17.06.2022;121;452;120;710;128;71;8
18.06.2022;209;369;118;574;82;59;7
19.06.2022;173;258;74;378;51;29;5
20.06.2022;69;312;57;757;94;73;8
21.06.2022;66;499;80;780;130;102;6
22.06.2022;74;463;79;757;108;62;7
23.06.2022;78;539;107;872;129;96;15
24.06.2022;122;392;68;825;119;100;11
25.06.2022;201;362;100;539;91;65;8
26.06.2022;201;282;86;392;59;36;15
27.06.2022;78;355;45;686;78;59;5
28.06.2022;70;452;90;771;122;92;2
29.06.2022;77;437;83;727;116;69;14
30.06.2022;110;484;86;808;117;92;7
01.07.2022;101;352;57;717;83;94;8
02.07.2022;228;393;146;657;97;73;17
03.07.2022;228;334;128;426;70;43;12
04.07.2022;76;418;76;755;125;99;11
05.07.2022;66;504;86;780;111;106;13
06.07.2022;78;407;81;694;89;69;7
07.07.2022;57;319;42;697;94;84;11
08.07.2022;108;361;95;674;106;78;12
09.07.2022;186;312;89;488;89;77;9
10.07.2022;195;252;74;349;48;40;6
11.07.2022;58;361;64;624;89;60;10
12.07.2022;73;473;84;754;99;69;14
13.07.2022;87;447;78;612;97;58;13
14.07.2022;94;453;106;718;110;76;8
15.07.2022;139;427;86;731;89;91;11
16.07.2022;212;319;102;511;55;51;5
17.07.2022;222;377;156;445;59;46;16
18.07.2022;85;391;88;725;93;71;6
19.07.2022;84;385;81;711;102;62;15
20.07.2022;85;340;81;678;55;70;15
21.07.2022;83;339;64;697;82;63;9
22.07.2022;117;342;95;654;86;79;7
23.07.2022;194;293;79;500;80;77;9
24.07.2022;234;359;117;442;56;33;15
25.07.2022;74;326;52;598;79;56;5
26.07.2022;66;355;63;606;70;66;5
27.07.2022;75;419;57;617;82;69;4
28.07.2022;94;416;92;666;81;70;12
29.07.2022;122;352;81;652;83;63;18
30.07.2022;173;297;87;500;83;44;10
31.07.2022;191;285;112;373;74;33;8
01.08.2022;83;328;58;559;66;54;7
02.08.2022;85;378;84;694;77;76;9
03.08.2022;82;400;100;678;70;66;11
04.08.2022;102;359;73;633;62;57;10
05.08.2022;106;312;51;602;79;67;6
06.08.2022;196;317;95;476;69;47;8
07.08.2022;201;364;145;443;69;43;14
08.08.2022;91;382;88;694;90;80;11
09.08.2022;89;424;96;689;70;74;9
10.08.2022;92;452;93;743;90;86;15
11.08.2022;89;437;102;733;80;65;12
12.08.2022;115;465;110;770;109;86;13
13.08.2022;187;337;114;515;63;64;9
14.08.2022;193;279;105;347;60;30;10
15.08.2022;77;308;66;584;86;64;10
16.08.2022;80;461;76;689;89;70;15
17.08.2022;70;390;68;586;79;54;8
18.08.2022;74;310;52;542;81;71;5
19.08.2022;111;307;62;626;88;71;6
20.08.2022;188;252;70;519;76;51;9
21.08.2022;183;305;116;406;62;43;14
22.08.2022;74;390;73;633;76;64;16
23.08.2022;85;453;74;695;86;69;7
24.08.2022;86;473;91;737;95;84;6
25.08.2022;88;438;90;702;107;73;6
26.08.2022;123;365;80;659;104;79;14
27.08.2022;187;272;52;488;66;65;9
28.08.2022;186;272;108;408;53;40;9
29.08.2022;79;409;76;645;96;77;8
30.08.2022;67;420;78;684;97;69;11
31.08.2022;86;400;53;668;106;73;6
01.09.2022;79;458;97;750;81;89;13
02.09.2022;125;475;138;797;122;76;17
03.09.2022;196;289;100;570;83;78;5
04.09.2022;201;345;128;466;80;44;10
05.09.2022;89;462;71;747;119;92;7
06.09.2022;82;488;69;762;107;95;10
07.09.2022;70;427;60;694;92;82;15
08.09.2022;84;318;38;785;88;81;10
09.09.2022;124;361;54;767;109;76;10
10.09.2022;216;208;44;549;64;52;4
11.09.2022;169;221;73;375;39;32;3
12.09.2022;59;425;77;706;96;85;10
13.09.2022;62;420;53;663;94;86;9
14.09.2022;83;300;36;758;84;80;6
15.09.2022;75;300;44;654;76;79;3
16.09.2022;94;332;56;708;87;92;10
17.09.2022;215;200;42;600;58;62;5
18.09.2022;198;77;22;404;54;35;7
19.09.2022;58;287;39;716;84;69;5
20.09.2022;80;305;38;650;92;66;4
21.09.2022;81;371;56;727;94;85;11
22.09.2022;87;399;89;781;102;120;6
23.09.2022;105;314;71;677;98;81;12
24.09.2022;190;175;44;483;50;63;7
25.09.2022;186;144;65;381;53;31;12
26.09.2022;61;286;35;664;71;77;8
27.09.2022;65;265;19;701;69;69;4
28.09.2022;69;239;27;686;73;87;7
29.09.2022;79;359;52;720;105;102;8
30.09.2022;125;358;71;815;117;118;11
01.10.2022;224;135;26;567;80;72;5
02.10.2022;222;102;17;389;49;36;2
03.10.2022;118;156;55;305;41;27;11
04.10.2022;62;367;66;828;97;91;11
05.10.2022;74;338;83;689;74;96;9
06.10.2022;84;378;82;761;84;102;9
07.10.2022;109;347;87;751;102;86;9
08.10.2022;157;200;45;441;58;54;8
09.10.2022;170;201;114;446;58;46;10
10.10.2022;67;350;50;719;68;77;8
11.10.2022;77;309;41;695;71;96;9
12.10.2022;53;340;52;684;135;91;7
13.10.2022;60;269;29;620;69;64;3
14.10.2022;113;301;39;722;87;84;5
15.10.2022;195;216;32;532;52;48;10
16.10.2022;188;254;94;437;52;44;6
17.10.2022;88;397;70;789;83;91;11
18.10.2022;69;387;45;775;98;86;9
19.10.2022;62;306;55;579;70;80;7
20.10.2022;76;303;36;701;73;98;8
21.10.2022;134;295;26;776;75;98;15
22.10.2022;181;236;46;531;63;77;7
23.10.2022;177;172;63;351;47;37;5
24.10.2022;75;303;36;693;71;86;10
25.10.2022;84;331;43;669;68;82;4
26.10.2022;66;345;50;677;79;104;8
27.10.2022;85;423;67;842;90;94;5
28.10.2022;111;395;73;836;86;117;5
29.10.2022;175;241;102;538;57;64;10
30.10.2022;197;299;153;473;67;53;13
31.10.2022;95;235;72;543;60;84;11
01.11.2022;136;282;39;572;51;75;4
02.11.2022;46;286;22;649;58;85;13
03.11.2022;74;303;23;649;61;96;7
04.11.2022;88;228;22;656;65;94;4
05.11.2022;137;173;18;448;52;70;3
06.11.2022;132;105;16;273;32;34;7
07.11.2022;56;235;12;616;68;98;12
08.11.2022;73;339;42;708;82;106;7
09.11.2022;79;282;18;659;62;84;7
10.11.2022;83;354;30;760;72;93;9
11.11.2022;125;292;39;696;95;90;6
12.11.2022;202;177;37;483;42;62;3
13.11.2022;158;143;37;322;47;42;9
14.11.2022;59;274;22;684;75;96;9
15.11.2022;63;336;30;759;82;98;15
16.11.2022;83;257;10;697;68;98;6
17.11.2022;81;248;14;794;60;149;8
18.11.2022;100;210;16;787;69;101;12
19.11.2022;181;102;5;507;48;96;4
20.11.2022;136;59;4;298;16;34;2
21.11.2022;68;233;8;695;70;111;7
22.11.2022;52;232;16;673;69;102;5
23.11.2022;67;279;14;722;64;135;4
24.11.2022;72;289;17;721;90;91;3
25.11.2022;143;269;19;818;103;122;8
26.11.2022;195;126;13;462;50;55;2
27.11.2022;186;74;5;301;27;38;4
28.11.2022;57;209;12;686;75;113;9
29.11.2022;63;229;7;718;70;123;5
30.11.2022;63;202;9;590;62;95;8
01.12.2022;91;196;13;606;66;103;5
02.12.2022;111;173;7;657;75;109;5
03.12.2022;168;82;4;372;31;51;8
04.12.2022;137;45;4;240;19;30;5
05.12.2022;72;209;10;746;75;137;7
06.12.2022;59;210;9;647;70;103;6
07.12.2022;67;221;7;605;68;99;8
08.12.2022;90;212;9;733;60;127;9
09.12.2022;116;171;5;668;57;103;5
10.12.2022;179;88;10;427;34;48;3
11.12.2022;171;42;2;306;23;33;7
12.12.2022;77;149;4;680;67;114;5
13.12.2022;57;132;3;694;55;129;6
14.12.2022;71;165;2;786;82;110;4
15.12.2022;70;135;4;688;56;101;8
16.12.2022;114;121;3;765;49;103;8
17.12.2022;161;47;1;451;49;53;3
18.12.2022;168;31;1;255;19;29;6
19.12.2022;61;200;2;575;39;113;6
20.12.2022;80;159;8;622;52;116;8
21.12.2022;94;158;5;576;53;95;3
22.12.2022;127;176;9;660;54;116;9
23.12.2022;149;154;6;619;36;95;8
24.12.2022;122;58;6;290;27;51;9
25.12.2022;108;32;6;187;5;25;3
26.12.2022;98;37;8;230;25;25;7
27.12.2022;69;93;12;431;48;58;4
28.12.2022;63;72;8;317;29;70;6
29.12.2022;65;93;7;350;35;68;10
30.12.2022;97;123;6;436;32;90;6
31.12.2022;95;68;12;229;24;46;5
